Regional Weather Roundup
Issued by NWS

Home | Current Version | Previous Version | Text Only | Print | Product List | Glossary Off
Versions: 1 2 3 4 5 6 7 8 9 10 11 12 13 14 15 16 17 18 19 20 21 22 23 24 25 26 27 28 29 30 31 32 33 34 35 36 37 38 39 40 41 42 43 44 45 46 47 48 49 50

000
ASUS43 KLOT 201706
RWRIL

ILLINOIS REGIONAL WEATHER ROUNDUP
NATIONAL WEATHER SERVICE CHICAGO/ROMEOVILLE IL
1100 AM CST THU NOV 20 2014

NOTE: "FAIR" INDICATES FEW OR NO CLOUDS BELOW 12,000 FEET WITH NO
SIGNIFICANT WEATHER AND/OR OBSTRUCTIONS TO VISIBILITY.

* THESE STATIONS ARE NOT UNDER NWS QUALITY CONTROL. THEY ALSO MAY NOT
  REPORT WEATHER SUCH AS PRECIPITATION OR FOG.

ILZ001-002-007-009-015-016-024-201800-
NORTHWEST ILLINOIS

CITY           SKY/WX    TMP DP  RH WIND       PRES   REMARKS
MOLINE         NOT AVBL
STERLING*      SUNNY     28  10  47 NW20G26   30.14R WCI  15
SAVANNA*       SUNNY     25   8  48 W15       30.15S WCI  12
$$

ILZ003-004-008-010-011-017-018-201800-
NORTH CENTRAL ILLINOIS

CITY           SKY/WX    TMP DP  RH WIND       PRES   REMARKS
ROCKFORD       MOSUNNY   25   4  40 W21       30.10S WCI  11
FREEPORT*      SUNNY     23   7  50 W18G26    30.11S WCI   8
ROCHELLE*      SUNNY     24   9  51 W21       30.12R WCI  10
DE KALB*       PTSUNNY   23   9  55 W18G24    30.09S WCI   9
PERU*          MOSUNNY   29  12  48 W16G25    30.14S WCI  17
$$

ILZ005-006-012>014-019>023-201800-
NORTHEAST ILLINOIS

CITY           SKY/WX    TMP DP  RH WIND       PRES   REMARKS
CHICAGO-OHARE  MOSUNNY   25   8  48 W20G26    30.06S WCI  11
CHICAGO-MIDWAY MOSUNNY   27  10  49 W20G25    30.08R WCI  13
AURORA         MOSUNNY   27   9  46 W21G29    30.09S WCI  13
LANSING*       SUNNY     27  11  52 W21       30.08S WCI  13
JOLIET*        MOSUNNY   27   9  46 W16G23    30.11S WCI  15
WAUKEGAN       SUNNY     24   4  42 W16G26    30.02R WCI  11
DUPAGE AIRPORT MOSUNNY   26   9  48 W20G29    30.07S WCI  12
KANKAKEE*      MOSUNNY   28  13  52 W23G29    30.12F WCI  14
WHEELING       MOSUNNY   24   7  48 W21G28    30.07R WCI   9
MORRIS*        MOSUNNY   28  12  52 W21G29    30.11S WCI  15
ROMEOVILLE*    SUNNY     26   9  48 NW21G26   30.09S WCI  12
NORTHERLY ISL    N/A     26  11  52 W8          N/A  WCI  18
$$

LMZ740>746-201800-
SOUTHERN LAKE MICHIGAN

STATION/POSITION SKY/WX   TEMP    WIND        PRES    VSBY  WAVE
                          AIR SEA DIR/SP/G                  HT/PER
                          (F)     (DEG/KT/KT) (MB)    (MI)  (FT/S)
SOUTHERN BUOY              24 43  280/ 23/ 27 1016.6R         7/ 6
WAUKEGAN HARBOR            23     270/ 15/ 25   N/A
HARRISON CRIB              23     260/ 25/ 31   N/A
BURNHAM HARBOR             26     290/ 14/ 18   N/A
CALUMET HARBOR             25     260/ 12/ 18 1017.1S
MICHIGAN CITY              24     240/ 23/ 28   N/A
$$

ILZ025>027-034>036-040-047-049-050-058-095>099-201800-
WEST-CENTRAL ILLINOIS

CITY           SKY/WX    TMP DP  RH WIND       PRES   REMARKS
QUINCY         SUNNY     30  13  49 W12       30.22F WCI  20
GALESBURG*     SUNNY     28  14  55 W16G23    30.18S WCI  16
MACOMB*        SUNNY     30  13  49 W17G24    30.22S WCI  18
JACKSONVILLE*  PTSUNNY   31  14  50 W13       30.23F WCI  21
PITTSFIELD*    SUNNY     31  16  52 W9        30.24F WCI  23
$$

ILZ028>032-037-038-041>044-048-051>054-059>061-201800-
CENTRAL ILLINOIS

CITY           SKY/WX    TMP DP  RH WIND       PRES   REMARKS
PONTIAC        SUNNY     30  13  50 W22G29    30.15S WCI  16
BLOOMINGTON    MOSUNNY   29  14  53 W17       30.17S WCI  17
DECATUR        MOSUNNY   29  13  51 W14       30.21S WCI  18
PEORIA         SUNNY     31  12  45 W15G22    30.19R WCI  20
LACON*         MOSUNNY   29  11  48 W12G21    30.16S WCI  19
LINCOLN*       SUNNY     32  14  47 W8G16     30.21S WCI  25
SPRINGFIELD    SUNNY     31  14  49 W16G28    30.22F WCI  20
TAYLORVILLE    MOSUNNY   28  16  59 W14G22    30.24S WCI  17
$$

ILZ033-039-045-046-055>057-062-063-201800-
EAST-CENTRAL ILLINOIS

CITY           SKY/WX    TMP DP  RH WIND       PRES   REMARKS
CHAMPAIGN      MOSUNNY   30  14  51 W20G26    30.18S WCI  17
DANVILLE*      PTSUNNY   28  16  59 W24G30    30.13F WCI  14
RANTOUL*       MOSUNNY   31  14  50 W18G25    30.16F WCI  19
MATTOON        PTSUNNY   29  14  53 W15G22    30.21S WCI  18
PARIS*         PTSUNNY   29  18  64 W15G23    30.21S WCI  17
$$

ILZ079-100>102-201800-
SOUTHWEST ILLINOIS

CITY           SKY/WX    TMP DP  RH WIND       PRES   REMARKS
ALTON          PTSUNNY   30  18  59 W12       30.26F WCI  21
BELLEVILLE     SUNNY     33  17  52 W7        30.26F WCI  27
CAHOKIA*       SUNNY     32  17  54 W6        30.27F WCI  26
SPARTA*        SUNNY     31  18  58 W6        30.28F WCI  25
$$

ILZ064>066-069>071-074>076-080>082-084>086-088>090-092>094-201800-
SOUTH-CENTRAL ILLINOIS

CITY           SKY/WX    TMP DP  RH WIND       PRES   REMARKS
CARBONDALE     SUNNY     33  16  49 CALM      30.29F
CAIRO*         SUNNY     37  22  53 W5        30.30F WCI  34
EFFINGHAM*     PTSUNNY   30  13  49 W9        30.24F WCI  21
MARION         SUNNY     32  18  55 NW7       30.30F WCI  26
MT. VERNON     SUNNY     30  16  55 W7        30.28F WCI  23
CENTRALIA*     SUNNY     31  15  52 W12       30.27F WCI  21
SALEM*           N/A     31  17  54 W13       30.26F WCI  22
METROPOLIS*    SUNNY     36  22  58 N5        30.28F WCI  32
$$

ILZ067-068-072-073-078-083-087-091-201800-
SOUTHEAST ILLINOIS

CITY           SKY/WX    TMP DP  RH WIND       PRES   REMARKS
LAWRENCEVILLE  MOSUNNY   31  15  52 W15       30.26F WCI  20
FLORA*         SUNNY     31  16  54 NW14      30.27S WCI  21
FAIRFIELD*     SUNNY     31  15  51 W8        30.27F WCI  24
HARRISBURG*    SUNNY     32  18  55 W9        30.30F WCI  24
ROBINSON*      MOSUNNY   29  17  60 W16       30.26S WCI  17
CARMI*         SUNNY     33  19  56 NW7       30.28F WCI  27
$$

ABBREVIATIONS USED IN REMARKS
   TC - TEMPERATURE IN CELSIUS
  WCI - WIND CHILL INDEX
   HX - HEAT INDEX
  VSB - VISIBILITY
$$



USA.gov is the U.S. government's official web portal to all federal, state and local government web resources and services.